Tracking 19644 objects as of 25-Apr-2019
HD Live streaming from Space Station
objects crossing your sky now

H-2A DEB

Track H-2A DEB now!
10-day predictions


NORAD ID: 43673
Int'l Code: 2018-084C
Perigee: 600.1 km
Apogee: 624.3 km
Inclination: 97.8 °
Period: 96.8 minutes
Semi major axis: 6983 km
RCS: Unknown
Launch date: October 29, 2018
Source: Japan (JPN)
Launch site: TANEGASHIMA SPACE CENTER (TNSTA)

Note: This is SATELLITE DEBRIS
aabbcc
Your satellite tracking list
Your tracking list is empty




NASA's NSSDC Master Catalog

Two Line Element Set (TLE):
1 43673U 18084C   19115.60515118 +.00000843 +00000-0 +98289-4 0  9993
2 43673 097.8495 229.1773 0017370 066.7945 293.5099 14.87715817026513
Source of the keplerian elements: AFSPC